| time (UTC) | temp F | wind direction | speed knots | gust knots | rain 1hr in | rain 24hr in | rain mn in | humidity % | barometer mb |
| 20260508031041 | 52 | 325 | 0.0 | 0.9 | 0.00 | 0.00 | 0.00 | 55 | 1009.7 |
| 20260508030537 | 53 | 309 | 0.0 | 0.9 | 0.00 | 0.00 | 0.00 | 53 | 1009.6 |
| 20260508030036 | 53 | 309 | 0.0 | 0.9 | 0.00 | 0.00 | 0.00 | 51 | 1009.6 |
| 20260508025035 | 55 | 291 | 0.0 | 0.9 | 0.00 | 0.00 | 0.00 | 49 | 1009.5 |
| 20260508024535 | 55 | 309 | 0.0 | 0.9 | 0.00 | 0.00 | 0.00 | 47 | 1009.4 |
| 20260508024035 | 56 | 9 | 0.0 | 0.9 | 0.00 | 0.00 | 0.00 | 45 | 1009.5 |
| 20260508023530 | 57 | 238 | 0.0 | 0.9 | 0.00 | 0.00 | 0.00 | 44 | 1009.3 |
| 20260508022529 | 58 | 221 | 0.0 | 1.7 | 0.00 | 0.00 | 0.00 | 42 | 1009.3 |
| 20260508022029 | 59 | 119 | 0.0 | 1.7 | 0.00 | 0.00 | 0.00 | 41 | 1009.2 |
| 20260508021029 | 61 | 51 | 0.0 | 1.7 | 0.00 | 0.00 | 0.00 | 38 | 1009.1 |
| 20260508020527 | 62 | 221 | 0.9 | 2.6 | 0.00 | 0.00 | 0.00 | 36 | 1008.9 |
| 20260508020022 | 63 | 265 | 0.9 | 2.6 | 0.00 | 0.00 | 0.00 | 33 | 1008.9 |
| 20260508015522 | 63 | 47 | 0.9 | 2.6 | 0.00 | 0.00 | 0.00 | 31 | 1008.7 |
| 20260508015022 | 64 | 44 | 1.7 | 3.5 | 0.00 | 0.00 | 0.00 | 31 | 1008.8 |
| 20260508014522 | 63 | 22 | 1.7 | 3.5 | 0.00 | 0.00 | 0.00 | 30 | 1008.8 |
| 20260508013521 | 62 | 9 | 1.7 | 3.5 | 0.00 | 0.00 | 0.00 | 31 | 1008.8 |
| 20260508012521 | 63 | 34 | 1.7 | 3.5 | 0.00 | 0.00 | 0.00 | 33 | 1008.8 |
| 20260508011520 | 63 | 338 | 2.6 | 3.5 | 0.00 | 0.00 | 0.00 | 34 | 1008.6 |
| 20260508010519 | 64 | 342 | 2.6 | 7.0 | 0.00 | 0.00 | 0.00 | 33 | 1008.4 |
| 20260508010020 | 65 | 23 | 2.6 | 7.0 | 0.00 | 0.00 | 0.00 | 33 | 1008.3 |
| 20260508005520 | 65 | 26 | 3.5 | 7.8 | 0.00 | 0.00 | 0.00 | 33 | 1008.3 |
| 20260508005019 | 65 | 341 | 3.5 | 7.8 | 0.00 | 0.00 | 0.00 | 33 | 1008.2 |
| 20260508004517 | 66 | 336 | 4.3 | 8.7 | 0.00 | 0.00 | 0.00 | 33 | 1008.2 |
| 20260508004018 | 67 | 24 | 3.5 | 8.7 | 0.00 | 0.00 | 0.00 | 33 | 1008.2 |
| 20260508003016 | 68 | 335 | 3.5 | 7.0 | 0.00 | 0.00 | 0.00 | 31 | 1008.1 |
| 20260508002516 | 68 | 341 | 3.5 | 7.8 | 0.00 | 0.00 | 0.00 | 31 | 1008.0 |
| 20260508002015 | 69 | 346 | 3.5 | 7.8 | 0.00 | 0.00 | 0.00 | 30 | 1008.1 |
| 20260508001515 | 69 | 341 | 3.5 | 7.8 | 0.00 | 0.00 | 0.00 | 32 | 1008.1 |
| 20260508000515 | 70 | 329 | 4.3 | 10.4 | 0.00 | 0.00 | 0.00 | 30 | 1008.0 |
| 20260507235515 | 71 | 325 | 1.7 | 8.7 | 0.00 | 0.00 | 0.00 | 31 | 1008.0 |
| 20260507234513 | 72 | 286 | 2.6 | 7.0 | 0.00 | 0.00 | 0.00 | 29 | 1007.9 |
| 20260507234015 | 72 | 291 | 2.6 | 10.4 | 0.00 | 0.00 | 0.00 | 30 | 1008.0 |
| 20260507233513 | 73 | 234 | 3.5 | 10.4 | 0.00 | 0.00 | 0.00 | 30 | 1008.0 |
| 20260507233013 | 73 | 9 | 3.5 | 8.7 | 0.00 | 0.00 | 0.00 | 29 | 1008.0 |
| 20260507232513 | 73 | 298 | 3.5 | 9.6 | 0.00 | 0.00 | 0.00 | 29 | 1008.0 |
| 20260507232013 | 73 | 304 | 3.5 | 9.6 | 0.00 | 0.00 | 0.00 | 31 | 1007.9 |
| 20260507231512 | 73 | 273 | 4.3 | 8.7 | 0.00 | 0.00 | 0.00 | 28 | 1008.0 |
| 20260507231012 | 73 | 22 | 1.7 | 8.7 | 0.00 | 0.00 | 0.00 | 29 | 1008.1 |
| 20260507230511 | 73 | 350 | 4.3 | 10.4 | 0.00 | 0.00 | 0.00 | 30 | 1007.8 |
| 20260507225511 | 74 | 309 | 5.2 | 11.3 | 0.00 | 0.00 | 0.00 | 30 | 1007.9 |
| 20260507225011 | 75 | 342 | 5.2 | 10.4 | 0.00 | 0.00 | 0.00 | 28 | 1007.8 |
| 20260507224510 | 76 | 336 | 3.5 | 7.8 | 0.00 | 0.00 | 0.00 | 29 | 1007.9 |
| 20260507224012 | 76 | 20 | 3.5 | 11.3 | 0.00 | 0.00 | 0.00 | 28 | 1007.8 |
| 20260507223510 | 76 | 316 | 4.3 | 11.3 | 0.00 | 0.00 | 0.00 | 29 | 1007.9 |
| 20260507223009 | 76 | 330 | 4.3 | 9.6 | 0.00 | 0.00 | 0.00 | 28 | 1007.9 |
| 20260507222509 | 76 | 273 | 1.7 | 8.7 | 0.00 | 0.00 | 0.00 | 28 | 1008.0 |
| 20260507222009 | 75 | 300 | 2.6 | 9.6 | 0.00 | 0.00 | 0.00 | 31 | 1007.9 |
| 20260507221508 | 75 | 291 | 1.7 | 12.2 | 0.00 | 0.00 | 0.00 | 29 | 1007.9 |
| 20260507220508 | 76 | 314 | 4.3 | 9.6 | 0.00 | 0.00 | 0.00 | 28 | 1007.9 |
| 20260507220007 | 75 | 15 | 4.3 | 8.7 | 0.00 | 0.00 | 0.00 | 31 | 1007.9 |
| 20260507215007 | 75 | 259 | 5.2 | 11.3 | 0.00 | 0.00 | 0.00 | 28 | 1007.8 |
| 20260507214506 | 75 | 298 | 3.5 | 11.3 | 0.00 | 0.00 | 0.00 | 32 | 1007.9 |
| 20260507214007 | 76 | 247 | 4.3 | 11.3 | 0.00 | 0.00 | 0.00 | 28 | 1007.9 |
| 20260507213506 | 76 | 11 | 3.5 | 11.3 | 0.00 | 0.00 | 0.00 | 30 | 1008.0 |
| 20260507213006 | 76 | 330 | 3.5 | 11.3 | 0.00 | 0.00 | 0.00 | 31 | 1007.9 |
| 20260507212505 | 76 | 342 | 3.5 | 9.6 | 0.00 | 0.00 | 0.00 | 29 | 1008.1 |
| 20260507211505 | 76 | 271 | 4.3 | 17.4 | 0.00 | 0.00 | 0.00 | 31 | 1008.1 |
| 20260507211004 | 76 | 334 | 5.2 | 11.3 | 0.00 | 0.00 | 0.00 | 30 | 1008.2 |
| 20260507210504 | 76 | 329 | 2.6 | 10.4 | 0.00 | 0.00 | 0.00 | 29 | 1008.2 |
| 20260507210005 | 76 | 11 | 6.1 | 12.2 | 0.00 | 0.00 | 0.00 | 30 | 1008.3 |
| 20260507205503 | 77 | 321 | 5.2 | 12.2 | 0.00 | 0.00 | 0.00 | 30 | 1008.3 |
| 20260507205003 | 77 | 291 | 6.1 | 9.6 | 0.00 | 0.00 | 0.00 | 29 | 1008.4 |
| 20260507204004 | 76 | 351 | 3.5 | 9.6 | 0.00 | 0.00 | 0.00 | 32 | 1008.4 |
| 20260507203501 | 76 | 296 | 3.5 | 9.6 | 0.00 | 0.00 | 0.00 | 30 | 1008.5 |
| 20260507203001 | 76 | 9 | 3.5 | 12.2 | 0.00 | 0.00 | 0.00 | 32 | 1008.6 |
| 20260507202500 | 75 | 351 | 3.5 | 12.2 | 0.00 | 0.00 | 0.00 | 32 | 1008.6 |
| 20260507202001 | 74 | 9 | 2.6 | 9.6 | 0.00 | 0.00 | 0.00 | 32 | 1008.6 |
| 20260507201500 | 74 | 323 | 4.3 | 9.6 | 0.00 | 0.00 | 0.00 | 36 | 1008.6 |
| 20260507201000 | 74 | 23 | 2.6 | 9.6 | 0.00 | 0.00 | 0.00 | 34 | 1008.6 |
| 20260507200500 | 74 | 298 | 3.5 | 9.6 | 0.00 | 0.00 | 0.00 | 31 | 1008.7 |
| 20260507195959 | 74 | 11 | 3.5 | 9.6 | 0.00 | 0.00 | 0.00 | 30 | 1008.7 |
| 20260507195500 | 74 | 255 | 3.5 | 10.4 | 0.00 | 0.00 | 0.00 | 35 | 1008.7 |
| 20260507194458 | 73 | 252 | 3.5 | 12.2 | 0.00 | 0.00 | 0.00 | 36 | 1008.6 |
| 20260507193959 | 73 | 249 | 7.0 | 12.2 | 0.00 | 0.00 | 0.00 | 31 | 1008.8 |
| 20260507193459 | 74 | 250 | 7.8 | 11.3 | 0.00 | 0.00 | 0.00 | 31 | 1008.7 |
| 20260507192957 | 73 | 302 | 4.3 | 11.3 | 0.00 | 0.00 | 0.00 | 38 | 1008.7 |
| 20260507192457 | 73 | 279 | 5.2 | 10.4 | 0.00 | 0.00 | 0.00 | 41 | 1008.7 |
| 20260507191457 | 73 | 242 | 5.2 | 11.3 | 0.00 | 0.00 | 0.00 | 36 | 1008.8 |
| 20260507190956 | 72 | 240 | 3.5 | 13.9 | 0.00 | 0.00 | 0.00 | 37 | 1008.7 |
| 20260507190457 | 72 | 286 | 3.5 | 13.9 | 0.00 | 0.00 | 0.00 | 41 | 1008.9 |
| 20260507185955 | 72 | 309 | 6.1 | 11.3 | 0.00 | 0.00 | 0.00 | 38 | 1008.9 |
| 20260507185457 | 72 | 9 | 2.6 | 10.4 | 0.00 | 0.00 | 0.00 | 35 | 1008.8 |
| 20260507184455 | 71 | 223 | 5.2 | 12.2 | 0.00 | 0.00 | 0.00 | 37 | 1009.0 |
| 20260507183956 | 71 | 294 | 6.1 | 15.6 | 0.00 | 0.00 | 0.00 | 37 | 1008.9 |
| 20260507183455 | 71 | 257 | 6.1 | 15.6 | 0.00 | 0.00 | 0.00 | 40 | 1009.1 |
| 20260507182453 | 69 | 243 | 4.3 | 10.4 | 0.00 | 0.00 | 0.00 | 37 | 1009.1 |
| 20260507181953 | 71 | 254 | 6.1 | 10.4 | 0.00 | 0.00 | 0.00 | 35 | 1009.2 |
| 20260507181453 | 71 | 216 | 4.3 | 13.9 | 0.00 | 0.00 | 0.00 | 40 | 1009.3 |
| 20260507180952 | 70 | 261 | 4.3 | 13.9 | 0.00 | 0.00 | 0.00 | 39 | 1009.4 |
| 20260507180452 | 69 | 267 | 7.0 | 13.9 | 0.00 | 0.00 | 0.00 | 41 | 1009.3 |
| 20260507175952 | 69 | 273 | 7.8 | 13.0 | 0.00 | 0.00 | 0.00 | 38 | 1009.5 |
| 20260507175452 | 69 | 238 | 6.1 | 13.9 | 0.00 | 0.00 | 0.00 | 37 | 1009.6 |
| 20260507173951 | 67 | 291 | 3.5 | 13.0 | 0.00 | 0.00 | 0.00 | 46 | 1009.6 |
| 20260507173450 | 67 | 240 | 7.8 | 13.9 | 0.00 | 0.00 | 0.00 | 39 | 1009.7 |
| 20260507172950 | 67 | 241 | 7.0 | 13.9 | 0.00 | 0.00 | 0.00 | 40 | 1009.8 |
| 20260507172450 | 67 | 230 | 4.3 | 14.8 | 0.00 | 0.00 | 0.00 | 42 | 1009.9 |
| 20260507171949 | 66 | 309 | 6.1 | 14.8 | 0.00 | 0.00 | 0.00 | 42 | 1010.0 |
| 20260507171448 | 66 | 236 | 7.0 | 13.0 | 0.00 | 0.00 | 0.00 | 39 | 1010.0 |
| 20260507170948 | 66 | 238 | 6.1 | 14.8 | 0.00 | 0.00 | 0.00 | 40 | 1010.0 |
| 20260507170448 | 66 | 196 | 7.8 | 14.8 | 0.00 | 0.00 | 0.00 | 40 | 1010.3 |
| 20260507165948 | 66 | 250 | 3.5 | 9.6 | 0.00 | 0.00 | 0.00 | 42 | 1010.3 |
| 20260507165447 | 65 | 270 | 4.3 | 13.9 | 0.00 | 0.00 | 0.00 | 43 | 1010.4 |
| 20260507164448 | 66 | 200 | 3.5 | 8.7 | 0.00 | 0.00 | 0.00 | 43 | 1010.5 |
| 20260507163946 | 65 | 221 | 4.3 | 8.7 | 0.00 | 0.00 | 0.00 | 46 | 1010.5 |
| 20260507163447 | 65 | 254 | 2.6 | 9.6 | 0.00 | 0.00 | 0.00 | 44 | 1010.5 |
| 20260507161444 | 63 | 229 | 6.1 | 10.4 | 0.00 | 0.00 | 0.00 | 45 | 1010.8 |
| 20260507160944 | 63 | 229 | 5.2 | 9.6 | 0.00 | 0.00 | 0.00 | 49 | 1010.8 |
| 20260507160443 | 62 | 212 | 5.2 | 8.7 | 0.00 | 0.00 | 0.00 | 49 | 1010.8 |
| 20260507155942 | 62 | 178 | 3.5 | 8.7 | 0.00 | 0.00 | 0.00 | 48 | 1010.8 |
| 20260507155443 | 62 | 229 | 4.3 | 9.6 | 0.00 | 0.00 | 0.00 | 49 | 1010.9 |
| 20260507154942 | 62 | 249 | 4.3 | 9.6 | 0.00 | 0.00 | 0.00 | 51 | 1010.9 |
| 20260507153941 | 62 | 205 | 4.3 | 7.8 | 0.00 | 0.00 | 0.00 | 53 | 1011.0 |
| 20260507153441 | 61 | 232 | 2.6 | 7.8 | 0.00 | 0.00 | 0.00 | 50 | 1011.1 |
| 20260507152940 | 61 | 229 | 5.2 | 7.8 | 0.00 | 0.00 | 0.00 | 54 | 1011.2 |
| 20260507152441 | 61 | 282 | 5.2 | 8.7 | 0.00 | 0.00 | 0.00 | 54 | 1011.2 |
| 20260507151939 | 60 | 225 | 5.2 | 8.7 | 0.00 | 0.00 | 0.00 | 54 | 1011.3 |
| 20260507151439 | 60 | 237 | 2.6 | 9.6 | 0.00 | 0.00 | 0.00 | 57 | 1011.3 |
| 20260507150939 | 60 | 237 | 3.5 | 10.4 | 0.00 | 0.00 | 0.00 | 57 | 1011.4 |
| 20260507150439 | 59 | 248 | 5.2 | 10.4 | 0.00 | 0.00 | 0.00 | 56 | 1011.6 |
| 20260507145938 | 59 | 294 | 5.2 | 9.6 | 0.00 | 0.00 | 0.00 | 58 | 1011.6 |
| 20260507145437 | 59 | 306 | 2.6 | 9.6 | 0.00 | 0.00 | 0.00 | 61 | 1011.7 |
| 20260507144937 | 58 | 244 | 6.1 | 8.7 | 0.00 | 0.00 | 0.00 | 58 | 1011.6 |
| 20260507143937 | 56 | 344 | 4.3 | 7.8 | 0.00 | 0.00 | 0.00 | 64 | 1011.7 |
| 20260507143437 | 56 | 279 | 3.5 | 9.6 | 0.00 | 0.00 | 0.00 | 64 | 1011.6 |
| 20260507142936 | 55 | 221 | 5.2 | 9.6 | 0.00 | 0.00 | 0.00 | 63 | 1011.7 |
| 20260507142436 | 55 | 257 | 1.7 | 9.6 | 0.00 | 0.00 | 0.00 | 66 | 1011.7 |
| 20260507141936 | 54 | 203 | 4.3 | 10.4 | 0.00 | 0.00 | 0.00 | 66 | 1011.7 |
| 20260507141435 | 54 | 194 | 5.2 | 12.2 | 0.00 | 0.00 | 0.00 | 65 | 1011.8 |
| 20260507140434 | 53 | 230 | 5.2 | 10.4 | 0.00 | 0.00 | 0.00 | 67 | 1011.9 |
| 20260507135433 | 52 | 215 | 7.0 | 11.3 | 0.00 | 0.00 | 0.00 | 68 | 1011.8 |
| 20260507134934 | 52 | 262 | 5.2 | 10.4 | 0.00 | 0.00 | 0.00 | 68 | 1011.8 |
| 20260507134434 | 52 | 225 | 6.1 | 10.4 | 0.00 | 0.00 | 0.00 | 69 | 1011.9 |
| 20260507133933 | 51 | 273 | 5.2 | 11.3 | 0.00 | 0.00 | 0.00 | 71 | 1011.8 |
| 20260507133433 | 51 | 284 | 6.1 | 11.3 | 0.00 | 0.00 | 0.00 | 71 | 1011.9 |
| 20260507132932 | 51 | 225 | 4.3 | 13.0 | 0.00 | 0.00 | 0.00 | 73 | 1012.0 |
| 20260507132429 | 50 | 225 | 7.0 | 13.0 | 0.00 | 0.00 | 0.00 | 73 | 1011.9 |
| 20260507131426 | 49 | 257 | 4.3 | 11.3 | 0.00 | 0.00 | 0.00 | 75 | 1011.8 |
| 20260507130926 | 49 | 209 | 5.2 | 11.3 | 0.00 | 0.00 | 0.00 | 76 | 1012.1 |
| 20260507130426 | 48 | 221 | 4.3 | 10.4 | 0.00 | 0.00 | 0.00 | 77 | 1012.1 |
| 20260507125925 | 48 | 231 | 5.2 | 10.4 | 0.00 | 0.00 | 0.00 | 76 | 1012.1 |
| 20260507125424 | 48 | 203 | 6.1 | 9.6 | 0.00 | 0.00 | 0.00 | 77 | 1012.1 |
| 20260507124924 | 47 | 192 | 5.2 | 9.6 | 0.00 | 0.00 | 0.00 | 78 | 1012.1 |
| 20260507124425 | 47 | 262 | 4.3 | 8.7 | 0.00 | 0.00 | 0.00 | 79 | 1012.1 |
| 20260507123925 | 47 | 207 | 5.2 | 9.6 | 0.00 | 0.00 | 0.00 | 79 | 1012.1 |
| 20260507122923 | 46 | 226 | 4.3 | 9.6 | 0.00 | 0.00 | 0.00 | 80 | 1012.1 |
| 20260507122423 | 46 | 217 | 4.3 | 8.7 | 0.00 | 0.00 | 0.00 | 80 | 1012.1 |
| 20260507121421 | 45 | 226 | 2.6 | 7.8 | 0.00 | 0.00 | 0.00 | 80 | 1012.2 |
| 20260507120920 | 45 | 221 | 3.5 | 7.8 | 0.00 | 0.00 | 0.00 | 80 | 1012.2 |
| 20260507120422 | 45 | 221 | 3.5 | 7.0 | 0.00 | 0.00 | 0.00 | 80 | 1012.1 |
| 20260507115919 | 45 | 203 | 2.6 | 6.1 | 0.00 | 0.00 | 0.00 | 80 | 1012.1 |
| 20260507115419 | 45 | 196 | 2.6 | 6.1 | 0.00 | 0.00 | 0.00 | 80 | 1012.1 |
| 20260507114918 | 45 | 232 | 2.6 | 7.0 | 0.00 | 0.00 | 0.00 | 80 | 1012.1 |
| 20260507114418 | 45 | 257 | 2.6 | 7.0 | 0.00 | 0.00 | 0.00 | 80 | 1012.2 |
| 20260507113919 | 45 | 193 | 2.6 | 5.2 | 0.00 | 0.00 | 0.00 | 80 | 1012.2 |
| 20260507113417 | 45 | 225 | 3.5 | 7.0 | 0.00 | 0.00 | 0.00 | 80 | 1012.3 |
| 20260507112916 | 45 | 212 | 3.5 | 7.0 | 0.00 | 0.00 | 0.00 | 79 | 1012.2 |
| 20260507112415 | 45 | 255 | 2.6 | 6.1 | 0.00 | 0.00 | 0.00 | 79 | 1012.2 |
| 20260507111916 | 45 | 261 | 2.6 | 7.0 | 0.00 | 0.00 | 0.00 | 79 | 1012.3 |
| 20260507111415 | 45 | 238 | 2.6 | 7.8 | 0.00 | 0.00 | 0.00 | 79 | 1012.2 |
| 20260507110914 | 45 | 230 | 4.3 | 7.8 | 0.00 | 0.00 | 0.00 | 79 | 1012.2 |
| 20260507110414 | 45 | 214 | 3.5 | 6.1 | 0.00 | 0.00 | 0.00 | 79 | 1012.2 |
| 20260507105413 | 45 | 207 | 2.6 | 6.1 | 0.00 | 0.00 | 0.00 | 78 | 1012.3 |
| 20260507104912 | 45 | 265 | 3.5 | 6.1 | 0.00 | 0.00 | 0.00 | 78 | 1012.2 |
| 20260507104412 | 45 | 221 | 2.6 | 6.1 | 0.00 | 0.00 | 0.00 | 78 | 1012.3 |
| 20260507103411 | 45 | 214 | 2.6 | 7.0 | 0.00 | 0.00 | 0.00 | 78 | 1012.2 |
| 20260507102911 | 46 | 241 | 1.7 | 7.8 | 0.00 | 0.00 | 0.00 | 77 | 1012.2 |
| 20260507102410 | 46 | 250 | 4.3 | 7.8 | 0.00 | 0.00 | 0.00 | 77 | 1012.2 |
| 20260507101910 | 46 | 223 | 1.7 | 6.1 | 0.00 | 0.00 | 0.00 | 77 | 1012.2 |
| 20260507100909 | 46 | 250 | 2.6 | 6.1 | 0.00 | 0.00 | 0.00 | 77 | 1012.2 |
| 20260507100409 | 46 | 254 | 2.6 | 5.2 | 0.00 | 0.00 | 0.00 | 77 | 1012.2 |
| 20260507095909 | 46 | 219 | 2.6 | 5.2 | 0.00 | 0.00 | 0.00 | 76 | 1012.3 |
| 20260507095408 | 46 | 196 | 3.5 | 6.1 | 0.00 | 0.00 | 0.00 | 76 | 1012.3 |
| 20260507094908 | 46 | 232 | 3.5 | 6.1 | 0.00 | 0.00 | 0.00 | 76 | 1012.3 |
| 20260507094407 | 46 | 225 | 3.5 | 6.1 | 0.00 | 0.00 | 0.00 | 75 | 1012.4 |
| 20260507093406 | 46 | 219 | 2.6 | 6.1 | 0.00 | 0.00 | 0.00 | 75 | 1012.4 |
| 20260507092906 | 46 | 229 | 3.5 | 6.1 | 0.00 | 0.00 | 0.00 | 76 | 1012.5 |
| 20260507091905 | 45 | 201 | 2.6 | 6.1 | 0.00 | 0.00 | 0.00 | 76 | 1012.5 |
| 20260507091405 | 45 | 265 | 2.6 | 6.1 | 0.00 | 0.00 | 0.00 | 76 | 1012.6 |
| 20260507090905 | 45 | 265 | 2.6 | 6.1 | 0.00 | 0.00 | 0.00 | 77 | 1012.6 |
| 20260507090404 | 44 | 201 | 1.7 | 6.1 | 0.00 | 0.00 | 0.00 | 77 | 1012.6 |
| 20260507085904 | 44 | 219 | 2.6 | 4.3 | 0.00 | 0.00 | 0.00 | 77 | 1012.7 |
| 20260507085403 | 43 | 214 | 1.7 | 4.3 | 0.00 | 0.00 | 0.00 | 77 | 1012.8 |
| 20260507084904 | 43 | 210 | 1.7 | 3.5 | 0.00 | 0.00 | 0.00 | 77 | 1012.9 |
| 20260507084404 | 42 | 234 | 0.9 | 3.5 | 0.00 | 0.00 | 0.00 | 75 | 1013.0 |
| 20260507083902 | 42 | 178 | 0.9 | 1.7 | 0.00 | 0.00 | 0.00 | 75 | 1013.0 |
| 20260507083402 | 42 | 221 | 0.0 | 1.7 | 0.00 | 0.00 | 0.00 | 74 | 1013.1 |
| 20260507082856 | 42 | 137 | 0.0 | 1.7 | 0.00 | 0.00 | 0.00 | 74 | 1013.3 |
| 20260507082357 | 42 | 161 | 0.9 | 1.7 | 0.00 | 0.00 | 0.00 | 74 | 1013.3 |
| 20260507081855 | 42 | 178 | 0.0 | 1.7 | 0.00 | 0.00 | 0.00 | 73 | 1013.4 |
| 20260507080855 | 42 | 196 | 0.9 | 1.7 | 0.00 | 0.00 | 0.00 | 73 | 1013.5 |
| 20260507080355 | 42 | 146 | 0.9 | 1.7 | 0.00 | 0.00 | 0.00 | 73 | 1013.6 |
| 20260507075356 | 42 | 119 | 0.0 | 0.9 | 0.00 | 0.00 | 0.00 | 72 | 1013.8 |
| 20260507074354 | 42 | 178 | 0.0 | 2.6 | 0.00 | 0.00 | 0.00 | 73 | 1013.8 |
| 20260507073854 | 42 | 119 | 0.0 | 1.7 | 0.00 | 0.00 | 0.00 | 72 | 1013.8 |
| 20260507072353 | 42 | 178 | 0.0 | 0.9 | 0.00 | 0.00 | 0.00 | 72 | 1013.9 |
| 20260507071847 | 42 | 126 | 0.0 | 0.9 | 0.00 | 0.00 | 0.00 | 72 | 1014.0 |
| 20260507071347 | 42 | 298 | 0.0 | 1.7 | 0.00 | 0.00 | 0.00 | 73 | 1014.2 |
| 20260507070846 | 42 | 119 | 0.9 | 1.7 | 0.00 | 0.00 | 0.00 | 73 | 1014.2 |
| 20260507070347 | 42 | 162 | 0.9 | 2.6 | 0.00 | 0.00 | 0.00 | 74 | 1014.1 |
| 20260507065846 | 42 | 129 | 0.9 | 3.5 | 0.00 | 0.00 | 0.00 | 75 | 1014.2 |
| 20260507065345 | 41 | 83 | 1.7 | 3.5 | 0.00 | 0.00 | 0.00 | 75 | 1014.3 |
| 20260507064841 | 41 | 137 | 1.7 | 2.6 | 0.00 | 0.00 | 0.00 | 74 | 1014.5 |
| 20260507064341 | 41 | 124 | 1.7 | 2.6 | 0.00 | 0.00 | 0.00 | 74 | 1014.5 |
| 20260507063339 | 41 | 119 | 0.9 | 2.6 | 0.00 | 0.00 | 0.00 | 74 | 1014.5 |
| 20260507062338 | 41 | 111 | 0.9 | 2.6 | 0.00 | 0.00 | 0.00 | 76 | 1014.6 |
| 20260507061838 | 41 | 117 | 0.9 | 2.6 | 0.00 | 0.00 | 0.00 | 76 | 1014.6 |
| 20260507061338 | 40 | 121 | 1.7 | 2.6 | 0.00 | 0.00 | 0.00 | 76 | 1014.7 |
| 20260507060837 | 40 | 115 | 1.7 | 2.6 | 0.00 | 0.00 | 0.00 | 77 | 1014.8 |
| 20260507060337 | 40 | 111 | 0.9 | 2.6 | 0.00 | 0.00 | 0.00 | 76 | 1014.8 |
| 20260507055837 | 40 | 238 | 0.0 | 2.6 | 0.00 | 0.00 | 0.00 | 76 | 1014.8 |
| 20260507055337 | 40 | 124 | 0.9 | 2.6 | 0.00 | 0.00 | 0.00 | 76 | 1014.8 |
| 20260507054839 | 40 | 83 | 1.7 | 2.6 | 0.00 | 0.00 | 0.00 | 77 | 1014.8 |
| 20260507054337 | 40 | 111 | 0.9 | 2.6 | 0.00 | 0.00 | 0.00 | 77 | 1014.9 |
| 20260507053336 | 40 | 238 | 0.0 | 1.7 | 0.00 | 0.00 | 0.00 | 77 | 1014.9 |
| 20260507052837 | 40 | 153 | 0.9 | 2.6 | 0.00 | 0.00 | 0.00 | 78 | 1014.9 |
| 20260507051836 | 39 | 153 | 0.9 | 1.7 | 0.00 | 0.00 | 0.00 | 78 | 1014.9 |
| 20260507051337 | 39 | 80 | 0.9 | 1.7 | 0.00 | 0.00 | 0.00 | 77 | 1015.1 |
| 20260507050837 | 39 | 212 | 0.9 | 1.7 | 0.00 | 0.00 | 0.00 | 76 | 1015.1 |
| 20260507050337 | 39 | 232 | 0.0 | 0.9 | 0.00 | 0.00 | 0.00 | 76 | 1014.9 |
| 20260507045834 | 39 | 137 | 0.0 | 0.9 | 0.00 | 0.00 | 0.00 | 75 | 1014.8 |
| 20260507045335 | 40 | 137 | 0.0 | 0.9 | 0.00 | 0.00 | 0.00 | 75 | 1014.9 |
| 20260507044836 | 40 | 93 | 0.0 | 0.0 | 0.00 | 0.00 | 0.00 | 74 | 1015.0 |
| 20260507043834 | 40 | 93 | 0.0 | 1.7 | 0.00 | 0.00 | 0.00 | 73 | 1015.1 |
| 20260507043334 | 40 | 221 | 0.0 | 1.7 | 0.00 | 0.00 | 0.00 | 73 | 1015.1 |
| 20260507042834 | 40 | 162 | 0.9 | 1.7 | 0.00 | 0.00 | 0.00 | 72 | 1015.2 |
| 20260507042335 | 40 | 93 | 0.0 | 1.7 | 0.00 | 0.00 | 0.00 | 71 | 1015.3 |
| 20260507041833 | 41 | 34 | 0.9 | 3.5 | 0.00 | 0.00 | 0.00 | 71 | 1015.3 |
| 20260507041333 | 41 | 76 | 1.7 | 3.5 | 0.00 | 0.00 | 0.00 | 70 | 1015.4 |
| 20260507040333 | 42 | 265 | 0.0 | 0.9 | 0.00 | 0.00 | 0.00 | 70 | 1015.3 |
| 20260507035834 | 42 | 178 | 0.0 | 0.9 | 0.00 | 0.00 | 0.00 | 69 | 1015.4 |
| 20260507035333 | 42 | 137 | 0.9 | 0.9 | 0.00 | 0.00 | 0.00 | 69 | 1015.4 |
| 20260507034832 | 42 | 178 | 0.9 | 0.9 | 0.00 | 0.00 | 0.00 | 69 | 1015.4 |
| 20260507034334 | 43 | 309 | 0.0 | 1.7 | 0.00 | 0.00 | 0.00 | 68 | 1015.4 |
| 20260507033832 | 43 | 309 | 0.0 | 1.7 | 0.00 | 0.00 | 0.00 | 66 | 1015.4 |
| 20260507033332 | 43 | 51 | 0.0 | 0.9 | 0.00 | 0.00 | 0.00 | 65 | 1015.5 |
| 20260507032832 | 43 | 119 | 0.0 | 0.9 | 0.00 | 0.00 | 0.00 | 64 | 1015.6 |
| 20260507032332 | 43 | 51 | 0.0 | 0.9 | 0.00 | 0.00 | 0.00 | 62 | 1015.6 |
| 20260507031832 | 43 | 309 | 0.0 | 0.9 | 0.00 | 0.00 | 0.00 | 61 | 1015.7 |
| 20260507031330 | 44 | 309 | 0.9 | 0.9 | 0.00 | 0.00 | 0.00 | 60 | 1015.6 |